QZS-2 (MICHIBIKI-2) (42738 NORAD) Tracking and Keplerian Element Data

This shows tracking and keplerian element data for the satellite.

Feedback or suggestion? Click here.




ElementValue
Catalog42738
NameQZS-2 (MICHIBIKI-2)
Epoch Orbit2424
Epoch Day12.97093391
Epoch Year2024
RAAN255.9947
Inclination40.8255
Eccentricity0.0754132
Argument of Perigee269.7556
Mean Anonmoly77.4305
Mean Motion1.00277627
Decay Rate-9.9E-07
L11 42738U 17028A 24012.97093391 -.00000099 00000+0 00000+0 0 9999
L22 42738 40.8255 255.9947 0754132 269.7556 77.4305 1.00277627 24243



Live tracking and technical data element details for QZS-2 (MICHIBIKI-2) (NORAD 42738). QZS-2 (MICHIBIKI-2) can be tracked NOW for your location showing map with azimuth and elevation plus other details from your city location.







IsCatalogInMostPopularTable: catalog: 42738, numindb: 735
Update: records affected: 1



GetName: 42738 QZS-2 (MICHIBIKI-2)

Hit Count: updated at: Fri, 19 Apr 2024 11:27:59 GMT